This is the latest recevied weather packets stored in our database for station/object DC0VZ-6. If no packets are shown the sender has not sent any weather packets the latest 10 day(s).
| Time | Temp. | Humidity | Pressure | Rain* | Wind** | Luminosity | Snow |
|---|---|---|---|---|---|---|---|
| 1778042772 | 11.11° C | 57% | 973.3 hPa | 0 mm | - | - | - |
| 1778042172 | 11.11° C | 57% | 973.4 hPa | 0 mm | - | - | - |
| 1778041571 | 10.56° C | 57% | 973.4 hPa | 0 mm | - | - | - |
| 1778040971 | 10° C | 57% | 973.4 hPa | 0 mm | - | - | - |
| 1778040371 | 10° C | 57% | 973.4 hPa | 0 mm | - | - | - |
| 1778039771 | 10° C | 57% | 973.6 hPa | 0 mm | - | - | - |
| 1778039171 | 10° C | 57% | 973.6 hPa | 0 mm | - | - | - |
| 1778038571 | 10° C | 57% | 973.6 hPa | 0 mm | - | - | - |
| 1778037971 | 10.56° C | 57% | 973.6 hPa | 0 mm | - | - | - |
| 1778037371 | 10.56° C | 57% | 973.5 hPa | 0 mm | - | - | - |
| 1778036771 | 10.56° C | 57% | 973.5 hPa | 0 mm | - | - | - |
| 1778036171 | 11.11° C | 56% | 973.7 hPa | 0 mm | - | - | - |
| 1778035571 | 11.11° C | 56% | 973.7 hPa | 0 mm | - | - | - |
| 1778034971 | 11.11° C | 56% | 973.5 hPa | 0 mm | - | - | - |
| 1778034370 | 11.67° C | 56% | 973.5 hPa | 0 mm | - | - | - |
| 1778033770 | 11.67° C | 56% | 973.8 hPa | 0 mm | - | - | - |
| 1778033170 | 11.67° C | 56% | 973.8 hPa | 0 mm | - | - | - |
| 1778032570 | 11.67° C | 56% | 973.8 hPa | 0 mm | - | - | - |
| 1778031970 | 11.67° C | 56% | 973.8 hPa | 0 mm | - | - | - |
| 1778031370 | 12.22° C | 56% | 973.9 hPa | 0 mm | - | - | - |
| 1778030770 | 12.22° C | 56% | 973.9 hPa | 0 mm | - | - | - |
| 1778030171 | 11.67° C | 56% | 974.1 hPa | 0 mm | - | - | - |
| 1778029570 | 12.22° C | 56% | 974.1 hPa | 0 mm | - | - | - |
| 1778028970 | 12.78° C | 56% | 974.3 hPa | 0 mm | - | - | - |
| 1778028370 | 12.78° C | 55% | 974.3 hPa | 0 mm | - | - | - |
* Rain latest hour (hover to see other rain measurements)
** Current wind speed in m/s (hover to see current wind gust speed)